Showing default

FLOCK 4BE 3, 60561

Orbit data source: Space-Track

FLOCK 4BE 3, 60561 is a payload satellite owned by Planet (US) in SSO that was launched on Fri, 16 Aug 2024 UTC via an FALCON 9 launch vehicle from the Air Force Western Test Range (AFWTR). Payload-class satellites include a variety of spacecraft equipped with specific instruments for various scientific and technological missions. These include communications satellites like Starlink; space stations such as the ISS; scientific satellites like the Hubble; Earth observation satellites from companies like Planet Labs, Umbra, and HawkEye 360; GPS; miniature CubeSats for education and research; and military/defense satellites.

Loading next visibility...
Identifier
60561, 2024-149CX
Orbit
SSO
Country
Flag of USUS
Related business
Manufacturer
Planet
Mission
Operational Commercial Imaging
Bus & Motor
CUBESAT 3U, Unknown motor
Mass
5.7 kg wet, 5.7 kg dry
Launch date (UTC)
2024-08-16 (1 year ago)
Launch vehicle
FALCON 9
Launch site
Air Force Western Test Range (AFWTR)
Object type
Payload
Rocket body
Debris
Shape & HBR
Box + 2 Pan, 1.0 m
Radar Cross Section
0.072 m², Medium (>0.1 m² and < 1m²)

Expand to show TLE details & history
Last TLE update: 7 hours ago

TLE from 7 hours ago
0 FLOCK 4BE 3
1 60561U 24149CX  26035.14733203  .00019799  00000-0  55048-3 0  9997
2 60561  97.3801 118.1871 0005107  56.5606 303.6125 15.36876621 81875
Epoch: 2026-02-04T03:32Z
TLE epoch observation values (Epoch: 2026-02-04T03:32:09.487Z)
Latitude
-0.00012°
Longitude
-69.1705°
Altitude
456.535 km
Speed
7.64 km/s
True Right ascension
07h 52m 44s
True Declination
0° 00' 00"
Sunlit
Object was in full shadow at epoch
Visualization orbit readout
Latitude
Unknown
Longitude
Unknown
Altitude
Unknown
Speed
Unknown
Apparent Right ascension
Unknown
Apparent Declination
Unknown
Sunlit
N/A
Visualization observer readout
Local Sidereal Time
12:22:34
Azimuth
Unknown
Elevation
Unknown
Doppler factor
Unknown
Orbital elements
Apogee altitude
455.783 km
Perigee altitude
448.806 km
Semi-major axis
6,830.431 km
Eccentricity
0.00051
Inclination
97.3801°
RAAN
118.1871°
Arg. of periapsis
56.5606°
True anomaly
303.56375°
Mean anomaly
303.6125°
Eccentric anomaly
303.58812°
Mean motion
3.84478 °/min
Orbital period
93.63 mins
BSTAR
0.00055048
Loading maneuver chart data...
Computing Atmospheric mass density...
Loading historical data...
Loading historical data...
Loading historical data...
Loading historical data...
Loading historical data...
Loading historical data...
Loading historical data...

Documentation

Showing up to 5 results
|